Time,TemperatureF,DewpointF,PressureIn,WindDirection,WindDirectionDegrees,WindSpeedMPH,WindSpeedGustMPH,Humidity,HourlyPrecipIn,Conditions,Clouds,dailyrainin,SoftwareType,DateUTC
2013-05-11 00:00:00,72.7,64.7,29.95,West,270,0.0,0.0,76,0.00,,,0.00,Wunderground v.1.15,2013-05-11 04:00:00,
2013-05-11 00:01:00,72.7,65.1,29.95,West,270,0.0,0.0,77,0.00,,,0.00,Wunderground v.1.15,2013-05-11 04:01:00,
2013-05-11 00:06:00,72.5,64.9,29.95,West,270,0.0,0.0,77,0.00,,,0.00,Wunderground v.1.15,2013-05-11 04:06:00,
2013-05-11 00:11:00,72.5,64.9,29.95,West,270,0.0,0.0,77,0.00,,,0.00,Wunderground v.1.15,2013-05-11 04:11:00,
2013-05-11 00:16:00,72.3,65.1,29.94,West,270,0.0,0.0,78,0.00,,,0.00,Wunderground v.1.15,2013-05-11 04:16:00,
2013-05-11 00:21:00,72.3,65.1,29.94,West,270,0.0,0.0,78,0.00,,,0.00,Wunderground v.1.15,2013-05-11 04:21:00,
2013-05-11 00:26:00,72.1,64.5,29.94,West,270,0.0,0.0,77,0.00,,,0.00,Wunderground v.1.15,2013-05-11 04:26:00,
2013-05-11 00:31:00,72.0,64.8,29.94,West,270,0.0,0.0,78,0.00,,,0.00,Wunderground v.1.15,2013-05-11 04:31:00,
2013-05-11 00:36:00,71.8,64.6,29.94,West,270,0.0,0.0,78,0.00,,,0.00,Wunderground v.1.15,2013-05-11 04:36:00,
2013-05-11 00:41:00,71.8,64.6,29.94,West,270,0.0,0.0,78,0.00,,,0.00,Wunderground v.1.15,2013-05-11 04:41:00,
2013-05-11 00:46:00,71.6,64.4,29.95,West,270,0.0,0.0,78,0.00,,,0.00,Wunderground v.1.15,2013-05-11 04:46:00,
2013-05-11 00:51:00,71.6,64.4,29.95,West,270,0.0,0.0,78,0.00,,,0.00,Wunderground v.1.15,2013-05-11 04:51:00,
2013-05-11 00:56:00,71.5,64.3,29.95,West,270,0.0,0.0,78,0.00,,,0.00,Wunderground v.1.15,2013-05-11 04:56:00,
2013-05-11 01:02:00,71.5,64.3,29.95,West,270,0.0,0.0,78,0.00,,,0.00,Wunderground v.1.15,2013-05-11 05:02:00,
2013-05-11 01:07:00,71.5,64.3,29.95,West,270,0.0,0.0,78,0.00,,,0.00,Wunderground v.1.15,2013-05-11 05:07:00,
2013-05-11 01:12:00,71.3,64.4,29.95,West,270,0.0,0.0,79,0.00,,,0.00,Wunderground v.1.15,2013-05-11 05:12:00,
2013-05-11 01:17:00,71.3,64.4,29.94,West,270,0.0,0.0,79,0.00,,,0.00,Wunderground v.1.15,2013-05-11 05:17:00,
2013-05-11 01:22:00,71.1,64.3,29.94,West,270,0.0,0.0,79,0.00,,,0.00,Wunderground v.1.15,2013-05-11 05:22:00,
2013-05-11 01:27:00,71.1,64.3,29.94,West,270,0.0,0.0,79,0.00,,,0.00,Wunderground v.1.15,2013-05-11 05:27:00,
2013-05-11 01:32:00,71.1,64.3,29.94,West,270,0.0,0.0,79,0.00,,,0.00,Wunderground v.1.15,2013-05-11 05:32:00,
2013-05-11 01:37:00,70.9,64.1,29.94,West,270,0.0,0.0,79,0.00,,,0.00,Wunderground v.1.15,2013-05-11 05:37:00,
2013-05-11 01:42:00,70.9,64.1,29.94,West,270,0.0,0.0,79,0.00,,,0.00,Wunderground v.1.15,2013-05-11 05:42:00,
2013-05-11 01:47:00,70.8,64.3,29.93,West,270,0.0,0.0,80,0.00,,,0.00,Wunderground v.1.15,2013-05-11 05:47:00,
2013-05-11 01:52:00,70.9,64.4,29.93,West,270,0.0,0.0,80,0.00,,,0.00,Wunderground v.1.15,2013-05-11 05:52:00,
2013-05-11 01:57:00,70.9,64.4,29.93,West,270,0.0,0.0,80,0.00,,,0.00,Wunderground v.1.15,2013-05-11 05:57:00,
2013-05-11 02:02:00,70.8,64.3,29.94,West,270,0.0,0.0,80,0.00,,,0.00,Wunderground v.1.15,2013-05-11 06:02:00,
2013-05-11 02:07:00,70.8,64.7,29.94,West,270,0.0,0.0,81,0.00,,,0.00,Wunderground v.1.15,2013-05-11 06:07:00,
2013-05-11 02:12:00,70.8,64.7,29.94,West,270,0.0,0.0,81,0.00,,,0.00,Wunderground v.1.15,2013-05-11 06:12:00,
2013-05-11 02:17:00,70.9,64.8,29.94,West,270,0.0,0.0,81,0.00,,,0.00,Wunderground v.1.15,2013-05-11 06:17:00,
2013-05-11 02:22:00,70.9,64.8,29.94,West,270,0.0,0.0,81,0.00,,,0.00,Wunderground v.1.15,2013-05-11 06:22:00,
2013-05-11 02:27:00,71.1,65.0,29.94,West,270,0.0,0.0,81,0.00,,,0.00,Wunderground v.1.15,2013-05-11 06:27:00,
2013-05-11 02:32:00,71.3,65.5,29.93,West,270,0.0,0.0,82,0.00,,,0.00,Wunderground v.1.15,2013-05-11 06:32:00,
2013-05-11 02:37:00,71.5,65.7,29.93,West,270,0.0,0.0,82,0.00,,,0.00,Wunderground v.1.15,2013-05-11 06:37:00,
2013-05-11 02:42:00,71.6,65.8,29.93,West,270,0.0,0.0,82,0.00,,,0.00,Wunderground v.1.15,2013-05-11 06:42:00,
2013-05-11 02:47:00,71.8,66.0,29.93,West,270,0.0,0.0,82,0.00,,,0.00,Wunderground v.1.15,2013-05-11 06:47:00,
2013-05-11 02:52:00,71.8,66.0,29.93,West,270,0.0,0.0,82,0.00,,,0.00,Wunderground v.1.15,2013-05-11 06:52:00,
2013-05-11 02:57:00,72.0,66.2,29.93,West,270,0.0,0.0,82,0.00,,,0.00,Wunderground v.1.15,2013-05-11 06:57:00,
2013-05-11 03:02:00,72.1,66.3,29.92,West,270,0.0,0.0,82,0.00,,,0.00,Wunderground v.1.15,2013-05-11 07:02:00,
2013-05-11 03:07:00,72.1,66.3,29.92,West,270,0.0,0.0,82,0.00,,,0.00,Wunderground v.1.15,2013-05-11 07:07:00,
2013-05-11 03:12:00,72.3,66.5,29.92,West,270,0.0,0.0,82,0.00,,,0.00,Wunderground v.1.15,2013-05-11 07:12:00,
2013-05-11 03:17:00,72.3,66.5,29.91,West,270,0.0,0.0,82,0.00,,,0.00,Wunderground v.1.15,2013-05-11 07:17:00,
2013-05-11 03:22:00,72.3,66.5,29.91,West,270,0.0,0.0,82,0.00,,,0.00,Wunderground v.1.15,2013-05-11 07:22:00,
2013-05-11 03:27:00,72.3,66.8,29.91,West,270,0.0,0.0,83,0.00,,,0.00,Wunderground v.1.15,2013-05-11 07:27:00,
2013-05-11 03:32:00,72.3,66.8,29.90,West,270,0.0,0.0,83,0.00,,,0.00,Wunderground v.1.15,2013-05-11 07:32:00,
2013-05-11 03:37:00,72.1,66.6,29.90,West,270,0.0,0.0,83,0.00,,,0.00,Wunderground v.1.15,2013-05-11 07:37:00,
2013-05-11 03:42:00,72.1,66.6,29.90,West,270,0.0,0.0,83,0.00,,,0.00,Wunderground v.1.15,2013-05-11 07:42:00,
2013-05-11 03:47:00,72.1,66.6,29.90,West,270,0.0,0.0,83,0.00,,,0.00,Wunderground v.1.15,2013-05-11 07:47:00,
2013-05-11 03:52:00,72.1,66.6,29.90,West,270,0.0,0.0,83,0.00,,,0.00,Wunderground v.1.15,2013-05-11 07:52:00,
2013-05-11 03:57:00,72.1,66.6,29.90,West,270,0.0,0.0,83,0.00,,,0.00,Wunderground v.1.15,2013-05-11 07:57:00,
2013-05-11 04:02:00,72.1,66.6,29.89,West,270,0.0,0.0,83,0.00,,,0.00,Wunderground v.1.15,2013-05-11 08:02:00,
2013-05-11 04:07:00,72.0,66.6,29.89,West,270,0.0,0.0,83,0.00,,,0.00,Wunderground v.1.15,2013-05-11 08:07:00,
2013-05-11 04:12:00,72.0,66.6,29.89,West,270,0.0,0.0,83,0.00,,,0.00,Wunderground v.1.15,2013-05-11 08:12:00,
2013-05-11 04:17:00,71.8,66.4,29.89,West,270,0.0,0.0,83,0.00,,,0.00,Wunderground v.1.15,2013-05-11 08:17:00,
2013-05-11 04:22:00,71.6,66.2,29.89,West,270,0.0,0.0,83,0.00,,,0.00,Wunderground v.1.15,2013-05-11 08:22:00,
2013-05-11 04:27:00,71.6,66.2,29.89,West,270,0.0,0.0,83,0.00,,,0.00,Wunderground v.1.15,2013-05-11 08:27:00,
2013-05-11 04:32:00,71.5,66.1,29.89,West,270,0.0,0.0,83,0.00,,,0.00,Wunderground v.1.15,2013-05-11 08:32:00,
2013-05-11 04:37:00,71.5,66.1,29.89,West,270,0.0,0.0,83,0.00,,,0.00,Wunderground v.1.15,2013-05-11 08:37:00,
2013-05-11 04:42:00,71.5,66.4,29.89,West,270,0.0,0.0,84,0.00,,,0.00,Wunderground v.1.15,2013-05-11 08:42:00,
2013-05-11 04:47:00,71.5,66.4,29.89,West,270,0.0,0.0,84,0.00,,,0.00,Wunderground v.1.15,2013-05-11 08:47:00,
2013-05-11 04:52:00,71.6,66.5,29.89,West,270,0.0,0.0,84,0.00,,,0.00,Wunderground v.1.15,2013-05-11 08:52:00,
2013-05-11 04:57:00,71.6,66.5,29.89,West,270,0.0,0.0,84,0.00,,,0.00,Wunderground v.1.15,2013-05-11 08:57:00,
2013-05-11 05:02:00,71.6,66.5,29.89,West,270,0.0,0.0,84,0.00,,,0.00,Wunderground v.1.15,2013-05-11 09:02:00,
2013-05-11 05:08:00,71.6,66.5,29.89,West,270,0.0,0.0,84,0.00,,,0.00,Wunderground v.1.15,2013-05-11 09:08:00,
2013-05-11 05:13:00,71.6,66.5,29.89,West,270,0.0,0.0,84,0.00,,,0.00,Wunderground v.1.15,2013-05-11 09:13:00,
2013-05-11 05:17:00,71.5,66.4,29.89,West,270,0.0,0.0,84,0.00,,,0.00,Wunderground v.1.15,2013-05-11 09:17:00,
2013-05-11 05:23:00,71.5,66.4,29.89,West,270,0.0,0.0,84,0.00,,,0.00,Wunderground v.1.15,2013-05-11 09:23:00,
2013-05-11 05:28:00,71.5,66.4,29.89,West,270,0.0,0.0,84,0.00,,,0.00,Wunderground v.1.15,2013-05-11 09:28:00,
2013-05-11 05:33:00,71.3,66.2,29.90,West,270,0.0,0.0,84,0.00,,,0.00,Wunderground v.1.15,2013-05-11 09:33:00,
2013-05-11 05:38:00,71.3,66.6,29.90,West,270,0.0,0.0,85,0.00,,,0.00,Wunderground v.1.15,2013-05-11 09:38:00,
2013-05-11 05:43:00,71.3,66.6,29.90,West,270,0.0,0.0,85,0.00,,,0.00,Wunderground v.1.15,2013-05-11 09:43:00,
2013-05-11 05:48:00,71.3,66.6,29.90,West,270,0.0,0.0,85,0.00,,,0.00,Wunderground v.1.15,2013-05-11 09:48:00,
2013-05-11 05:53:00,71.1,66.4,29.90,West,270,0.0,0.0,85,0.00,,,0.00,Wunderground v.1.15,2013-05-11 09:53:00,
2013-05-11 05:58:00,71.3,66.6,29.90,West,270,0.0,0.0,85,0.00,,,0.00,Wunderground v.1.15,2013-05-11 09:58:00,
2013-05-11 06:03:00,71.3,66.6,29.90,West,270,0.0,0.0,85,0.00,,,0.00,Wunderground v.1.15,2013-05-11 10:03:00,
2013-05-11 06:08:00,71.3,66.6,29.90,West,270,0.0,0.0,85,0.00,,,0.00,Wunderground v.1.15,2013-05-11 10:08:00,
2013-05-11 06:13:00,71.3,66.6,29.90,West,270,0.0,0.0,85,0.00,,,0.00,Wunderground v.1.15,2013-05-11 10:13:00,
2013-05-11 06:18:00,71.3,66.6,29.90,West,270,0.0,0.0,85,0.00,,,0.00,Wunderground v.1.15,2013-05-11 10:18:00,
2013-05-11 06:23:00,71.1,66.4,29.90,West,270,0.0,0.0,85,0.00,,,0.00,Wunderground v.1.15,2013-05-11 10:23:00,
2013-05-11 06:28:00,71.1,66.4,29.90,West,270,0.0,0.0,85,0.00,,,0.00,Wunderground v.1.15,2013-05-11 10:28:00,
2013-05-11 06:33:00,70.9,66.2,29.90,West,270,0.0,0.0,85,0.00,,,0.00,Wunderground v.1.15,2013-05-11 10:33:00,
2013-05-11 06:38:00,70.9,66.2,29.90,West,270,0.0,0.0,85,0.00,,,0.00,Wunderground v.1.15,2013-05-11 10:38:00,
2013-05-11 06:43:00,70.9,66.2,29.90,West,270,0.0,0.0,85,0.00,,,0.00,Wunderground v.1.15,2013-05-11 10:43:00,
2013-05-11 06:48:00,70.8,66.1,29.91,West,270,0.0,0.0,85,0.00,,,0.00,Wunderground v.1.15,2013-05-11 10:48:00,
2013-05-11 06:53:00,70.8,66.4,29.91,West,270,0.0,0.0,86,0.00,,,0.00,Wunderground v.1.15,2013-05-11 10:53:00,
2013-05-11 06:58:00,70.8,66.4,29.91,West,270,0.0,0.0,86,0.00,,,0.00,Wunderground v.1.15,2013-05-11 10:58:00,
2013-05-11 07:03:00,70.8,66.4,29.92,West,270,0.0,0.0,86,0.00,,,0.00,Wunderground v.1.15,2013-05-11 11:03:00,
2013-05-11 07:08:00,70.8,66.4,29.92,West,270,0.0,0.0,86,0.00,,,0.00,Wunderground v.1.15,2013-05-11 11:08:00,
2013-05-11 07:13:00,70.6,66.2,29.92,West,270,0.0,0.0,86,0.00,,,0.00,Wunderground v.1.15,2013-05-11 11:13:00,
2013-05-11 07:18:00,70.6,66.2,29.92,West,270,0.0,0.0,86,0.00,,,0.00,Wunderground v.1.15,2013-05-11 11:18:00,
2013-05-11 07:23:00,70.8,66.4,29.92,West,270,0.0,0.0,86,0.00,,,0.00,Wunderground v.1.15,2013-05-11 11:23:00,
2013-05-11 07:28:00,70.8,66.4,29.92,West,270,0.0,0.0,86,0.00,,,0.00,Wunderground v.1.15,2013-05-11 11:28:00,
2013-05-11 07:33:00,70.9,66.8,29.92,West,270,0.0,0.0,87,0.00,,,0.00,Wunderground v.1.15,2013-05-11 11:33:00,
2013-05-11 07:38:00,71.1,67.0,29.92,WSW,248,0.0,0.0,87,0.00,,,0.00,Wunderground v.1.15,2013-05-11 11:38:00,
2013-05-11 07:43:00,71.6,67.5,29.92,SSW,193,0.0,0.0,87,0.00,,,0.00,Wunderground v.1.15,2013-05-11 11:43:00,
2013-05-11 07:48:00,72.0,67.9,29.92,SSW,193,0.0,0.0,87,0.00,,,0.00,Wunderground v.1.15,2013-05-11 11:48:00,
2013-05-11 07:53:00,72.3,68.2,29.92,SSW,193,0.0,0.0,87,0.00,,,0.00,Wunderground v.1.15,2013-05-11 11:53:00,
2013-05-11 07:58:00,73.0,69.2,29.92,SSW,192,0.0,1.0,88,0.00,,,0.00,Wunderground v.1.15,2013-05-11 11:58:00,
2013-05-11 08:03:00,73.5,69.4,29.92,SSE,157,0.0,0.0,87,0.00,,,0.00,Wunderground v.1.15,2013-05-11 12:03:00,
2013-05-11 08:08:00,73.9,70.1,29.92,SSE,164,0.0,3.0,88,0.00,,,0.00,Wunderground v.1.15,2013-05-11 12:08:00,
2013-05-11 08:13:00,74.4,70.3,29.92,SE,137,0.0,1.0,87,0.00,,,0.00,Wunderground v.1.15,2013-05-11 12:13:00,
2013-05-11 08:18:00,74.7,70.9,29.92,SE,137,0.0,1.0,88,0.00,,,0.00,Wunderground v.1.15,2013-05-11 12:18:00,
2013-05-11 08:23:00,75.3,71.2,29.92,SSE,155,0.0,5.0,87,0.00,,,0.00,Wunderground v.1.15,2013-05-11 12:23:00,
2013-05-11 08:28:00,75.4,71.3,29.92,SSE,160,0.0,6.0,87,0.00,,,0.00,Wunderground v.1.15,2013-05-11 12:28:00,
2013-05-11 08:33:00,75.8,71.7,29.92,SSE,160,1.0,2.0,87,0.00,,,0.00,Wunderground v.1.15,2013-05-11 12:33:00,
2013-05-11 08:38:00,76.0,71.8,29.92,SSE,157,0.0,3.0,87,0.00,,,0.00,Wunderground v.1.15,2013-05-11 12:38:00,
2013-05-11 08:43:00,76.1,71.6,29.92,South,182,0.0,5.0,86,0.00,,,0.00,Wunderground v.1.15,2013-05-11 12:43:00,
2013-05-11 08:48:00,76.1,71.6,29.93,South,184,0.0,5.0,86,0.00,,,0.00,Wunderground v.1.15,2013-05-11 12:48:00,
2013-05-11 08:53:00,76.1,71.6,29.93,South,184,0.0,1.0,86,0.00,,,0.00,Wunderground v.1.15,2013-05-11 12:53:00,
2013-05-11 08:58:00,76.3,71.8,29.93,SE,144,0.0,1.0,86,0.00,,,0.00,Wunderground v.1.15,2013-05-11 12:58:00,
2013-05-11 09:03:00,76.5,72.0,29.93,SSE,164,0.0,1.0,86,0.00,,,0.00,Wunderground v.1.15,2013-05-11 13:03:00,
2013-05-11 09:08:00,76.8,72.3,29.93,South,175,0.0,7.0,86,0.00,,,0.00,Wunderground v.1.15,2013-05-11 13:08:00,
2013-05-11 09:13:00,77.4,72.5,29.93,ESE,113,0.0,1.0,85,0.00,,,0.00,Wunderground v.1.15,2013-05-11 13:13:00,
2013-05-11 09:18:00,77.7,72.8,29.93,SSW,205,0.0,6.0,85,0.00,,,0.00,Wunderground v.1.15,2013-05-11 13:18:00,
2013-05-11 09:23:00,77.9,72.7,29.93,South,185,0.0,8.0,84,0.00,,,0.00,Wunderground v.1.15,2013-05-11 13:23:00,
2013-05-11 09:28:00,78.3,73.1,29.93,ESE,120,0.0,8.0,84,0.00,,,0.00,Wunderground v.1.15,2013-05-11 13:28:00,
2013-05-11 09:33:00,78.3,72.7,29.93,SSW,192,2.0,8.0,83,0.00,,,0.00,Wunderground v.1.15,2013-05-11 13:33:00,
2013-05-11 09:38:00,78.5,72.9,29.93,SE,136,0.0,8.0,83,0.00,,,0.00,Wunderground v.1.15,2013-05-11 13:38:00,
2013-05-11 09:43:00,78.6,73.0,29.93,SW,220,0.0,6.0,83,0.00,,,0.00,Wunderground v.1.15,2013-05-11 13:43:00,
2013-05-11 09:48:00,79.0,73.4,29.93,SW,220,0.0,6.0,83,0.00,,,0.00,Wunderground v.1.15,2013-05-11 13:48:00,
2013-05-11 09:53:00,79.4,73.4,29.93,WSW,258,0.0,4.0,82,0.00,,,0.00,Wunderground v.1.15,2013-05-11 13:53:00,
2013-05-11 09:58:00,79.4,73.4,29.93,SW,219,0.0,5.0,82,0.00,,,0.00,Wunderground v.1.15,2013-05-11 13:58:00,
2013-05-11 10:03:00,79.6,73.3,29.93,SSW,195,6.0,6.0,81,0.00,,,0.00,Wunderground v.1.15,2013-05-11 14:03:00,
2013-05-11 10:08:00,79.6,73.3,29.93,SW,215,0.0,6.0,81,0.00,,,0.00,Wunderground v.1.15,2013-05-11 14:08:00,
2013-05-11 10:13:00,80.1,73.7,29.93,SSE,154,0.0,1.0,81,0.00,,,0.00,Wunderground v.1.15,2013-05-11 14:13:00,
2013-05-11 10:18:00,80.7,74.0,29.93,SSE,151,0.0,1.0,80,0.00,,,0.00,Wunderground v.1.15,2013-05-11 14:18:00,
2013-05-11 10:23:00,81.2,74.4,29.93,SE,127,0.0,3.0,80,0.00,,,0.00,Wunderground v.1.15,2013-05-11 14:23:00,
2013-05-11 10:28:00,81.4,74.3,29.93,SW,216,0.0,5.0,79,0.00,,,0.00,Wunderground v.1.15,2013-05-11 14:28:00,
2013-05-11 10:34:00,81.8,74.6,29.93,SSW,205,0.0,6.0,79,0.00,,,0.00,Wunderground v.1.15,2013-05-11 14:34:00,
2013-05-11 10:39:00,82.0,74.8,29.93,South,191,0.0,7.0,79,0.00,,,0.00,Wunderground v.1.15,2013-05-11 14:39:00,
2013-05-11 10:44:00,82.4,74.8,29.93,WSW,240,0.0,10.0,78,0.00,,,0.00,Wunderground v.1.15,2013-05-11 14:44:00,
2013-05-11 10:49:00,82.6,74.7,29.93,WNW,302,2.0,10.0,77,0.00,,,0.00,Wunderground v.1.15,2013-05-11 14:49:00,
2013-05-11 10:54:00,83.2,75.2,29.93,SSW,200,0.0,5.0,77,0.00,,,0.00,Wunderground v.1.15,2013-05-11 14:54:00,
2013-05-11 10:59:00,83.4,75.0,29.93,WSW,251,0.0,5.0,76,0.00,,,0.00,Wunderground v.1.15,2013-05-11 14:59:00,
2013-05-11 11:04:00,83.8,75.4,29.93,WNW,299,0.0,5.0,76,0.00,,,0.00,Wunderground v.1.15,2013-05-11 15:04:00,
2013-05-11 11:09:00,84.1,75.3,29.93,SW,220,0.0,5.0,75,0.00,,,0.00,Wunderground v.1.15,2013-05-11 15:09:00,
2013-05-11 11:14:00,84.5,75.7,29.93,SW,220,1.0,6.0,75,0.00,,,0.00,Wunderground v.1.15,2013-05-11 15:14:00,
2013-05-11 11:19:00,84.7,75.5,29.93,NW,308,0.0,6.0,74,0.00,,,0.00,Wunderground v.1.15,2013-05-11 15:19:00,
2013-05-11 11:24:00,85.1,75.9,29.93,SW,223,0.0,7.0,74,0.00,,,0.00,Wunderground v.1.15,2013-05-11 15:24:00,
2013-05-11 11:29:00,85.3,75.7,29.93,SSE,164,5.0,8.0,73,0.00,,,0.00,Wunderground v.1.15,2013-05-11 15:29:00,
2013-05-11 11:34:00,85.7,75.6,29.93,SW,232,0.0,6.0,72,0.00,,,0.00,Wunderground v.1.15,2013-05-11 15:34:00,
2013-05-11 11:39:00,85.7,75.6,29.93,North,8,1.0,6.0,72,0.00,,,0.00,Wunderground v.1.15,2013-05-11 15:39:00,
2013-05-11 11:44:00,85.9,75.8,29.93,SW,230,0.0,3.0,72,0.00,,,0.00,Wunderground v.1.15,2013-05-11 15:44:00,
2013-05-11 11:49:00,86.3,75.8,29.93,SSW,208,0.0,7.0,71,0.00,,,0.00,Wunderground v.1.15,2013-05-11 15:49:00,
2013-05-11 11:54:00,86.5,75.5,29.93,SW,224,1.0,12.0,70,0.00,,,0.00,Wunderground v.1.15,2013-05-11 15:54:00,
2013-05-11 11:59:00,86.5,75.5,29.93,West,277,6.0,12.0,70,0.00,,,0.00,Wunderground v.1.15,2013-05-11 15:59:00,
2013-05-11 12:04:00,86.7,75.7,29.93,SSW,212,1.0,10.0,70,0.00,,,0.00,Wunderground v.1.15,2013-05-11 16:04:00,
2013-05-11 12:09:00,87.0,75.6,29.93,SW,222,3.0,10.0,69,0.00,,,0.00,Wunderground v.1.15,2013-05-11 16:09:00,
2013-05-11 12:14:00,87.2,75.3,29.93,West,265,3.0,7.0,68,0.00,,,0.00,Wunderground v.1.15,2013-05-11 16:14:00,
2013-05-11 12:19:00,87.2,75.3,29.94,SSW,195,2.0,7.0,68,0.00,,,0.00,Wunderground v.1.15,2013-05-11 16:19:00,
2013-05-11 12:24:00,87.0,75.2,29.94,SSW,198,1.0,8.0,68,0.00,,,0.00,Wunderground v.1.15,2013-05-11 16:24:00,
2013-05-11 12:29:00,86.5,74.7,29.94,West,274,2.0,11.0,68,0.00,,,0.00,Wunderground v.1.15,2013-05-11 16:29:00,
2013-05-11 12:34:00,86.5,74.7,29.94,NW,308,0.0,11.0,68,0.00,,,0.00,Wunderground v.1.15,2013-05-11 16:34:00,
2013-05-11 12:39:00,86.5,74.7,29.94,SSW,195,6.0,11.0,68,0.00,,,0.00,Wunderground v.1.15,2013-05-11 16:39:00,
2013-05-11 12:44:00,86.7,74.9,29.94,WNW,296,0.0,6.0,68,0.00,,,0.00,Wunderground v.1.15,2013-05-11 16:44:00,
2013-05-11 12:49:00,87.2,75.3,29.93,West,274,2.0,8.0,68,0.00,,,0.00,Wunderground v.1.15,2013-05-11 16:49:00,
2013-05-11 12:54:00,87.4,75.1,29.93,SSW,212,0.0,12.0,67,0.00,,,0.00,Wunderground v.1.15,2013-05-11 16:54:00,
2013-05-11 12:59:00,87.4,75.1,29.93,NW,322,1.0,12.0,67,0.00,,,0.00,Wunderground v.1.15,2013-05-11 16:59:00,
2013-05-11 13:04:00,87.6,74.8,29.92,SE,141,1.0,6.0,66,0.00,,,0.00,Wunderground v.1.15,2013-05-11 17:04:00,
2013-05-11 13:09:00,87.6,74.8,29.92,South,184,1.0,7.0,66,0.00,,,0.00,Wunderground v.1.15,2013-05-11 17:09:00,
2013-05-11 13:14:00,87.6,74.8,29.92,NNE,13,0.0,5.0,66,0.00,,,0.00,Wunderground v.1.15,2013-05-11 17:14:00,
2013-05-11 13:19:00,88.0,74.3,29.92,WNW,292,0.0,8.0,64,0.00,,,0.00,Wunderground v.1.15,2013-05-11 17:19:00,
2013-05-11 13:24:00,88.0,73.8,29.92,SW,216,0.0,8.0,63,0.00,,,0.00,Wunderground v.1.15,2013-05-11 17:24:00,
2013-05-11 13:29:00,88.0,73.8,29.92,SSE,162,0.0,8.0,63,0.00,,,0.00,Wunderground v.1.15,2013-05-11 17:29:00,
2013-05-11 13:34:00,88.0,73.8,29.92,SW,230,6.0,7.0,63,0.00,,,0.00,Wunderground v.1.15,2013-05-11 17:34:00,
2013-05-11 13:39:00,88.2,74.0,29.92,WSW,237,7.0,10.0,63,0.00,,,0.00,Wunderground v.1.15,2013-05-11 17:39:00,
2013-05-11 13:44:00,88.4,74.2,29.92,SSW,208,7.0,8.0,63,0.00,,,0.00,Wunderground v.1.15,2013-05-11 17:44:00,
2013-05-11 13:49:00,88.6,74.4,29.92,South,191,2.0,9.0,63,0.00,,,0.00,Wunderground v.1.15,2013-05-11 17:49:00,
2013-05-11 13:54:00,88.6,74.4,29.92,South,172,1.0,7.0,63,0.00,,,0.00,Wunderground v.1.15,2013-05-11 17:54:00,
2013-05-11 13:59:00,88.6,74.4,29.92,South,174,2.0,8.0,63,0.00,,,0.00,Wunderground v.1.15,2013-05-11 17:59:00,
2013-05-11 14:04:00,88.6,73.9,29.92,SW,216,0.0,7.0,62,0.00,,,0.00,Wunderground v.1.15,2013-05-11 18:04:00,
2013-05-11 14:09:00,88.8,74.1,29.92,SSW,196,13.0,13.0,62,0.00,,,0.00,Wunderground v.1.15,2013-05-11 18:09:00,
2013-05-11 14:14:00,88.8,73.6,29.92,West,278,0.0,13.0,61,0.00,,,0.00,Wunderground v.1.15,2013-05-11 18:14:00,
2013-05-11 14:20:00,88.8,73.6,29.92,West,260,0.0,3.0,61,0.00,,,0.00,Wunderground v.1.15,2013-05-11 18:20:00,
2013-05-11 14:25:00,88.8,73.6,29.92,West,278,0.0,7.0,61,0.00,,,0.00,Wunderground v.1.15,2013-05-11 18:25:00,
2013-05-11 14:30:00,89.0,73.8,29.92,NW,326,2.0,2.0,61,0.00,,,0.00,Wunderground v.1.15,2013-05-11 18:30:00,
2013-05-11 14:35:00,89.0,73.8,29.92,WSW,240,0.0,8.0,61,0.00,,,0.00,Wunderground v.1.15,2013-05-11 18:35:00,
2013-05-11 14:40:00,88.8,73.6,29.92,WSW,243,0.0,2.0,61,0.00,,,0.00,Wunderground v.1.15,2013-05-11 18:40:00,
2013-05-11 14:45:00,88.6,73.4,29.92,WNW,287,0.0,6.0,61,0.00,,,0.00,Wunderground v.1.15,2013-05-11 18:45:00,
2013-05-11 14:50:00,88.2,73.0,29.91,West,280,0.0,2.0,61,0.00,,,0.00,Wunderground v.1.15,2013-05-11 18:50:00,
2013-05-11 14:55:00,87.8,73.2,29.91,SSW,206,5.0,8.0,62,0.00,,,0.00,Wunderground v.1.15,2013-05-11 18:55:00,
2013-05-11 15:00:00,87.4,72.8,29.91,WNW,284,7.0,7.0,62,0.00,,,0.00,Wunderground v.1.15,2013-05-11 19:00:00,
2013-05-11 15:05:00,87.2,72.6,29.91,South,175,1.0,7.0,62,0.00,,,0.00,Wunderground v.1.15,2013-05-11 19:05:00,
2013-05-11 15:10:00,87.0,72.9,29.91,WNW,288,0.0,2.0,63,0.00,,,0.00,Wunderground v.1.15,2013-05-11 19:10:00,
2013-05-11 15:15:00,87.2,73.5,29.91,West,272,0.0,5.0,64,0.00,,,0.00,Wunderground v.1.15,2013-05-11 19:15:00,
2013-05-11 15:20:00,87.2,73.1,29.91,WNW,291,5.0,5.0,63,0.00,,,0.00,Wunderground v.1.15,2013-05-11 19:20:00,
2013-05-11 15:25:00,87.2,73.5,29.91,West,281,2.0,10.0,64,0.00,,,0.00,Wunderground v.1.15,2013-05-11 19:25:00,
2013-05-11 15:30:00,87.0,73.3,29.91,SE,141,0.0,2.0,64,0.00,,,0.00,Wunderground v.1.15,2013-05-11 19:30:00,
2013-05-11 15:35:00,86.7,73.1,29.91,West,265,5.0,11.0,64,0.00,,,0.00,Wunderground v.1.15,2013-05-11 19:35:00,
2013-05-11 15:40:00,86.5,73.3,29.91,NW,326,5.0,5.0,65,0.00,,,0.00,Wunderground v.1.15,2013-05-11 19:40:00,
2013-05-11 15:45:00,86.1,73.0,29.91,SSW,202,8.0,8.0,65,0.00,,,0.00,Wunderground v.1.15,2013-05-11 19:45:00,
2013-05-11 15:50:00,85.9,73.2,29.91,WSW,251,5.0,7.0,66,0.00,,,0.00,Wunderground v.1.15,2013-05-11 19:50:00,
2013-05-11 15:55:00,85.7,73.0,29.91,WSW,237,2.0,7.0,66,0.00,,,0.00,Wunderground v.1.15,2013-05-11 19:55:00,
2013-05-11 16:00:00,85.5,73.3,29.90,South,186,0.0,1.0,67,0.00,,,0.00,Wunderground v.1.15,2013-05-11 20:00:00,
2013-05-11 16:05:00,85.3,73.1,29.90,SSW,195,0.0,1.0,67,0.00,,,0.00,Wunderground v.1.15,2013-05-11 20:05:00,
2013-05-11 16:10:00,85.3,73.1,29.90,WNW,302,1.0,4.0,67,0.00,,,0.00,Wunderground v.1.15,2013-05-11 20:10:00,
2013-05-11 16:15:00,85.3,73.1,29.90,WSW,240,0.0,7.0,67,0.00,,,0.00,Wunderground v.1.15,2013-05-11 20:15:00,
2013-05-11 16:20:00,85.3,73.1,29.90,SSE,162,0.0,2.0,67,0.00,,,0.00,Wunderground v.1.15,2013-05-11 20:20:00,
2013-05-11 16:25:00,85.1,73.3,29.90,SSW,209,6.0,6.0,68,0.00,,,0.00,Wunderground v.1.15,2013-05-11 20:25:00,
2013-05-11 16:30:00,84.9,73.2,29.90,SW,229,7.0,9.0,68,0.00,,,0.00,Wunderground v.1.15,2013-05-11 20:30:00,
2013-05-11 16:35:00,84.3,72.6,29.90,South,176,0.0,9.0,68,0.00,,,0.00,Wunderground v.1.15,2013-05-11 20:35:00,
2013-05-11 16:40:00,84.1,72.8,29.90,West,271,0.0,2.0,69,0.00,,,0.00,Wunderground v.1.15,2013-05-11 20:40:00,
2013-05-11 16:45:00,84.0,72.7,29.90,SSW,213,2.0,11.0,69,0.00,,,0.00,Wunderground v.1.15,2013-05-11 20:45:00,
2013-05-11 16:50:00,83.8,72.5,29.90,WSW,240,8.0,11.0,69,0.00,,,0.00,Wunderground v.1.15,2013-05-11 20:50:00,
2013-05-11 16:55:00,83.6,72.3,29.90,NW,309,0.0,11.0,69,0.00,,,0.00,Wunderground v.1.15,2013-05-11 20:55:00,
2013-05-11 17:00:00,83.4,72.6,29.91,South,179,0.0,2.0,70,0.00,,,0.00,Wunderground v.1.15,2013-05-11 21:00:00,
2013-05-11 17:05:00,83.2,72.4,29.91,SE,134,0.0,7.0,70,0.00,,,0.00,Wunderground v.1.15,2013-05-11 21:05:00,
2013-05-11 17:10:00,83.0,72.2,29.91,SE,134,0.0,0.0,70,0.00,,,0.00,Wunderground v.1.15,2013-05-11 21:10:00,
2013-05-11 17:15:00,83.0,72.6,29.90,SSW,206,5.0,8.0,71,0.00,,,0.00,Wunderground v.1.15,2013-05-11 21:15:00,
2013-05-11 17:20:00,82.8,72.4,29.90,SE,134,5.0,9.0,71,0.00,,,0.00,Wunderground v.1.15,2013-05-11 21:20:00,
2013-05-11 17:25:00,82.8,72.8,29.90,SW,233,1.0,10.0,72,0.00,,,0.00,Wunderground v.1.15,2013-05-11 21:25:00,
2013-05-11 17:30:00,82.6,72.7,29.90,WNW,294,0.0,2.0,72,0.00,,,0.00,Wunderground v.1.15,2013-05-11 21:30:00,
2013-05-11 17:35:00,82.4,72.5,29.90,WSW,240,2.0,8.0,72,0.00,,,0.00,Wunderground v.1.15,2013-05-11 21:35:00,
2013-05-11 17:40:00,82.4,72.5,29.90,SW,219,3.0,6.0,72,0.00,,,0.00,Wunderground v.1.15,2013-05-11 21:40:00,
2013-05-11 17:45:00,82.2,72.7,29.91,SW,234,0.0,6.0,73,0.00,,,0.00,Wunderground v.1.15,2013-05-11 21:45:00,
2013-05-11 17:50:00,82.0,72.5,29.91,South,176,0.0,5.0,73,0.00,,,0.00,Wunderground v.1.15,2013-05-11 21:50:00,
2013-05-11 17:55:00,81.8,72.3,29.91,WSW,246,0.0,5.0,73,0.00,,,0.00,Wunderground v.1.15,2013-05-11 21:55:00,
2013-05-11 18:00:00,81.6,72.5,29.90,WSW,237,5.0,6.0,74,0.00,,,0.00,Wunderground v.1.15,2013-05-11 22:00:00,
2013-05-11 18:05:00,81.4,72.3,29.90,SW,217,0.0,6.0,74,0.00,,,0.00,Wunderground v.1.15,2013-05-11 22:05:00,
2013-05-11 18:10:00,81.2,72.1,29.90,WNW,299,4.0,5.0,74,0.00,,,0.00,Wunderground v.1.15,2013-05-11 22:10:00,
2013-05-11 18:15:00,81.1,72.4,29.90,South,169,0.0,5.0,75,0.00,,,0.00,Wunderground v.1.15,2013-05-11 22:15:00,
2013-05-11 18:20:00,81.1,72.4,29.90,South,178,0.0,1.0,75,0.00,,,0.00,Wunderground v.1.15,2013-05-11 22:20:00,
2013-05-11 18:25:00,80.9,72.2,29.90,SW,220,0.0,6.0,75,0.00,,,0.00,Wunderground v.1.15,2013-05-11 22:25:00,
2013-05-11 18:30:00,80.7,72.0,29.90,West,265,0.0,1.0,75,0.00,,,0.00,Wunderground v.1.15,2013-05-11 22:30:00,
2013-05-11 18:35:00,80.7,72.4,29.90,WSW,246,0.0,5.0,76,0.00,,,0.00,Wunderground v.1.15,2013-05-11 22:35:00,
2013-05-11 18:40:00,80.5,72.2,29.90,West,275,0.0,5.0,76,0.00,,,0.00,Wunderground v.1.15,2013-05-11 22:40:00,
2013-05-11 18:45:00,80.5,72.2,29.90,SSW,212,0.0,5.0,76,0.00,,,0.00,Wunderground v.1.15,2013-05-11 22:45:00,
2013-05-11 18:51:00,80.3,72.0,29.90,NW,308,2.0,6.0,76,0.00,,,0.00,Wunderground v.1.15,2013-05-11 22:51:00,
2013-05-11 18:56:00,79.9,70.5,29.90,WNW,295,11.0,16.0,73,0.00,,,0.00,Wunderground v.1.15,2013-05-11 22:56:00,
2013-05-11 19:01:00,78.6,68.8,29.92,WNW,299,2.0,7.0,72,0.00,,,0.00,Wunderground v.1.15,2013-05-11 23:01:00,
2013-05-11 19:06:00,77.6,67.9,29.92,North,357,0.0,12.0,72,0.00,,,0.00,Wunderground v.1.15,2013-05-11 23:06:00,
2013-05-11 19:11:00,77.0,67.3,29.92,North,0,0.0,7.0,72,0.00,,,0.00,Wunderground v.1.15,2013-05-11 23:11:00,
2013-05-11 19:16:00,76.7,67.4,29.90,North,7,0.0,7.0,73,0.00,,,0.00,Wunderground v.1.15,2013-05-11 23:16:00,
2013-05-11 19:21:00,76.7,67.8,29.90,North,0,0.0,1.0,74,0.00,,,0.00,Wunderground v.1.15,2013-05-11 23:21:00,
2013-05-11 19:26:00,76.5,67.6,29.90,NNE,13,0.0,7.0,74,0.00,,,0.00,Wunderground v.1.15,2013-05-11 23:26:00,
2013-05-11 19:31:00,76.3,67.4,29.92,NW,322,0.0,0.0,74,0.00,,,0.00,Wunderground v.1.15,2013-05-11 23:31:00,
2013-05-11 19:36:00,76.0,67.5,29.92,WSW,253,0.0,6.0,75,0.00,,,0.00,Wunderground v.1.15,2013-05-11 23:36:00,
2013-05-11 19:41:00,75.8,67.3,29.92,North,1,0.0,0.0,75,0.00,,,0.00,Wunderground v.1.15,2013-05-11 23:41:00,
2013-05-11 19:46:00,75.6,67.1,29.91,North,7,0.0,0.0,75,0.00,,,0.00,Wunderground v.1.15,2013-05-11 23:46:00,
2013-05-11 19:51:00,75.4,67.3,29.91,North,0,0.0,0.0,76,0.00,,,0.00,Wunderground v.1.15,2013-05-11 23:51:00,
2013-05-11 19:56:00,75.3,67.2,29.91,North,350,0.0,0.0,76,0.00,,,0.00,Wunderground v.1.15,2013-05-11 23:56:00,
2013-05-11 20:01:00,75.3,67.2,29.91,North,0,0.0,0.0,76,0.00,,,0.00,Wunderground v.1.15,2013-05-12 00:01:00,
2013-05-11 20:06:00,75.3,67.2,29.91,North,0,0.0,0.0,76,0.00,,,0.00,Wunderground v.1.15,2013-05-12 00:06:00,
2013-05-11 20:11:00,75.1,67.0,29.91,North,0,0.0,0.0,76,0.00,,,0.00,Wunderground v.1.15,2013-05-12 00:11:00,
2013-05-11 20:16:00,75.1,67.0,29.90,North,0,0.0,0.0,76,0.00,,,0.00,Wunderground v.1.15,2013-05-12 00:16:00,
2013-05-11 20:21:00,74.9,66.8,29.90,North,0,0.0,0.0,76,0.00,,,0.00,Wunderground v.1.15,2013-05-12 00:21:00,
2013-05-11 20:26:00,74.6,66.5,29.90,NE,41,0.0,0.0,76,0.00,,,0.00,Wunderground v.1.15,2013-05-12 00:26:00,
2013-05-11 20:31:00,74.6,66.5,29.90,NE,41,0.0,0.0,76,0.00,,,0.00,Wunderground v.1.15,2013-05-12 00:31:00,
2013-05-11 20:36:00,74.4,66.3,29.90,NE,41,0.0,0.0,76,0.00,,,0.00,Wunderground v.1.15,2013-05-12 00:36:00,
2013-05-11 20:41:00,74.4,66.3,29.90,NE,41,0.0,0.0,76,0.00,,,0.00,Wunderground v.1.15,2013-05-12 00:41:00,
2013-05-11 20:46:00,74.4,66.7,29.90,NE,41,0.0,0.0,77,0.00,,,0.00,Wunderground v.1.15,2013-05-12 00:46:00,
2013-05-11 20:51:00,74.2,66.5,29.90,NE,41,0.0,0.0,77,0.00,,,0.00,Wunderground v.1.15,2013-05-12 00:51:00,
2013-05-11 20:56:00,74.0,66.0,29.90,NE,41,0.0,0.0,76,0.00,,,0.00,Wunderground v.1.15,2013-05-12 00:56:00,
2013-05-11 21:01:00,74.0,66.3,29.91,NE,41,0.0,0.0,77,0.00,,,0.00,Wunderground v.1.15,2013-05-12 01:01:00,
2013-05-11 21:06:00,73.9,66.2,29.91,NE,41,0.0,0.0,77,0.00,,,0.00,Wunderground v.1.15,2013-05-12 01:06:00,
2013-05-11 21:11:00,73.9,66.2,29.91,NE,41,0.0,0.0,77,0.00,,,0.00,Wunderground v.1.15,2013-05-12 01:11:00,
2013-05-11 21:16:00,73.9,66.2,29.90,NE,41,0.0,0.0,77,0.00,,,0.00,Wunderground v.1.15,2013-05-12 01:16:00,
2013-05-11 21:21:00,73.9,66.6,29.90,NE,41,0.0,0.0,78,0.00,,,0.00,Wunderground v.1.15,2013-05-12 01:21:00,
2013-05-11 21:26:00,73.7,66.4,29.90,NE,41,0.0,0.0,78,0.00,,,0.00,Wunderground v.1.15,2013-05-12 01:26:00,
2013-05-11 21:31:00,73.7,66.4,29.90,NE,41,0.0,0.0,78,0.00,,,0.00,Wunderground v.1.15,2013-05-12 01:31:00,
2013-05-11 21:36:00,73.7,66.4,29.90,NE,41,0.0,0.0,78,0.00,,,0.00,Wunderground v.1.15,2013-05-12 01:36:00,
2013-05-11 21:41:00,73.5,66.2,29.90,NE,41,0.0,0.0,78,0.00,,,0.00,Wunderground v.1.15,2013-05-12 01:41:00,
2013-05-11 21:46:00,73.5,66.2,29.90,NE,44,0.0,1.0,78,0.00,,,0.00,Wunderground v.1.15,2013-05-12 01:46:00,
2013-05-11 21:51:00,73.3,66.0,29.90,NE,44,0.0,0.0,78,0.00,,,0.00,Wunderground v.1.15,2013-05-12 01:51:00,
2013-05-11 21:56:00,73.2,66.3,29.90,NE,47,0.0,0.0,79,0.00,,,0.00,Wunderground v.1.15,2013-05-12 01:56:00,
2013-05-11 22:01:00,73.2,66.3,29.90,NE,47,0.0,0.0,79,0.00,,,0.00,Wunderground v.1.15,2013-05-12 02:01:00,
2013-05-11 22:06:00,73.0,66.1,29.90,NE,47,0.0,0.0,79,0.00,,,0.00,Wunderground v.1.15,2013-05-12 02:06:00,
2013-05-11 22:11:00,72.8,65.9,29.90,NE,47,0.0,0.0,79,0.00,,,0.00,Wunderground v.1.15,2013-05-12 02:11:00,
2013-05-11 22:16:00,72.8,65.9,29.90,NE,47,0.0,0.0,79,0.00,,,0.00,Wunderground v.1.15,2013-05-12 02:16:00,
2013-05-11 22:21:00,72.7,65.8,29.90,NE,47,0.0,0.0,79,0.00,,,0.00,Wunderground v.1.15,2013-05-12 02:21:00,
2013-05-11 22:26:00,72.7,65.8,29.90,NE,47,0.0,0.0,79,0.00,,,0.00,Wunderground v.1.15,2013-05-12 02:26:00,
2013-05-11 22:31:00,72.7,66.2,29.92,NE,47,0.0,0.0,80,0.00,,,0.00,Wunderground v.1.15,2013-05-12 02:31:00,
2013-05-11 22:36:00,72.7,66.2,29.92,NE,47,0.0,0.0,80,0.00,,,0.00,Wunderground v.1.15,2013-05-12 02:36:00,
2013-05-11 22:41:00,72.7,66.2,29.92,NE,47,0.0,0.0,80,0.00,,,0.00,Wunderground v.1.15,2013-05-12 02:41:00,
2013-05-11 22:46:00,72.5,66.0,29.92,NE,47,0.0,0.0,80,0.00,,,0.00,Wunderground v.1.15,2013-05-12 02:46:00,
2013-05-11 22:51:00,72.5,66.0,29.92,NE,47,0.0,0.0,80,0.00,,,0.00,Wunderground v.1.15,2013-05-12 02:51:00,
2013-05-11 22:56:00,72.3,65.8,29.92,NE,47,0.0,0.0,80,0.00,,,0.00,Wunderground v.1.15,2013-05-12 02:56:00,
2013-05-11 23:01:00,72.3,65.8,29.92,NE,47,0.0,0.0,80,0.00,,,0.00,Wunderground v.1.15,2013-05-12 03:01:00,
2013-05-11 23:06:00,72.3,65.8,29.92,NE,47,0.0,0.0,80,0.00,,,0.00,Wunderground v.1.15,2013-05-12 03:06:00,
2013-05-11 23:11:00,72.3,65.8,29.92,NE,47,0.0,0.0,80,0.00,,,0.00,Wunderground v.1.15,2013-05-12 03:11:00,
2013-05-11 23:16:00,72.3,65.8,29.92,NE,47,0.0,0.0,80,0.00,,,0.00,Wunderground v.1.15,2013-05-12 03:16:00,
2013-05-11 23:21:00,72.1,65.6,29.92,NE,48,0.0,0.0,80,0.00,,,0.00,Wunderground v.1.15,2013-05-12 03:21:00,
2013-05-11 23:26:00,72.1,65.6,29.92,NE,47,0.0,0.0,80,0.00,,,0.00,Wunderground v.1.15,2013-05-12 03:26:00,
2013-05-11 23:31:00,72.0,65.8,29.92,NE,47,0.0,0.0,81,0.00,,,0.00,Wunderground v.1.15,2013-05-12 03:31:00,
2013-05-11 23:36:00,72.0,65.5,29.92,NE,47,0.0,0.0,80,0.00,,,0.00,Wunderground v.1.15,2013-05-12 03:36:00,
2013-05-11 23:41:00,71.8,65.7,29.92,NE,47,0.0,0.0,81,0.00,,,0.00,Wunderground v.1.15,2013-05-12 03:41:00,
2013-05-11 23:46:00,71.6,65.5,29.92,NE,47,0.0,0.0,81,0.00,,,0.00,Wunderground v.1.15,2013-05-12 03:46:00,
2013-05-11 23:51:00,71.6,65.5,29.92,NE,47,0.0,0.0,81,0.00,,,0.00,Wunderground v.1.15,2013-05-12 03:51:00,
2013-05-11 23:57:00,71.5,65.4,29.92,NE,47,0.0,0.0,81,0.00,,,0.00,Wunderground v.1.15,2013-05-12 03:57:00,